Home   Weather   Nanning   Past weeks

Flag for China Past Weather in Nanning, Guangxi, China — Yesterday and Last 2 Weeks

Now
61 °F

Clear.


Feels Like: 61 °F
Forecast: 54 / 74 °F
Wind: 1 mph from North

Location: Nanning Airport

Current Time: Mar 2, 2017 at 2:14:05 am

Latest Report: Mar 2, 2017 at 1:00 am


Visibility: 5 mi

Pressure: 30.15 "Hg

Humidity: 72%

Dew Point: 52 °F

Location of NanningLocation

Past Weather in Nanning — Graph

°F

Nanning Temperature Yesterday

Maximum temperature yesterday: 72 °F (at 5:00 pm)
Minimum temperature yesterday: 54 °F (at 12:00 am)
Average temperature yesterday: 60 °F

High & Low Weather Summary for the Past Weeks

 TemperatureHumidityPressure
High84 °F (Feb 22, 4:00 pm)100% (Feb 16, 8:00 am)30.33 "Hg (Feb 16, 8:00 am)
Low50 °F (Feb 25, 4:00 am)30% (Feb 18, 5:00 pm)29.77 "Hg (Feb 20, 3:00 pm)
Average63 °F70%30.10 "Hg
* Reported Feb 15 1:00 am — Mar 2 1:00 am, Nanning, Weather by CustomWeather, © 2017

Note: Actual official high and low records may vary slightly from our data, if they occured in-between our weather recording intervals... More about our weather records

Advertising

Nanning Weather History for the Previous 24 Hours

Scroll right to see more
 ConditionsComfort  
Time TempWeatherWind HumidityBarometerVisibility
1:00 am
Thu, Mar 2
61 °FClear.1 mph72%30.15 "Hg5 mi
12:00 am61 °FClear.1 mph72%30.15 "Hg5 mi
11:00 pm
Wed, Mar 1
61 °FClear.1 mph77%30.18 "Hg4 mi
10:00 pm63 °FClear.1 mph73%30.15 "Hg4 mi
9:00 pm61 °FClear.1 mph77%30.15 "Hg4 mi
8:00 pm64 °FClear.1 mph64%30.12 "Hg10 mi
7:00 pm66 °FPassing clouds.6 mph60%30.12 "HgN/A
6:00 pm70 °FPassing clouds.3 mph50%30.09 "HgN/A
5:00 pm72 °FSunny.8 mph41%30.09 "Hg10 mi
4:00 pm70 °FPassing clouds.6 mph46%30.12 "HgN/A
3:00 pm70 °FPassing clouds.8 mph46%30.15 "HgN/A
2:00 pm70 °FPassing clouds.8 mph46%30.15 "HgN/A
1:00 pm66 °FPassing clouds.8 mph60%30.18 "HgN/A
12:00 pm63 °FClear.8 mph68%30.24 "Hg5 mi
11:00 am59 °FHaze.1 mph77%30.27 "Hg3 mi
10:00 am57 °FFog.No wind88%30.27 "Hg2 mi
9:00 am55 °FFog.3 mph94%30.27 "Hg1 mi
8:00 am55 °FFog.1 mph94%30.24 "Hg2 mi
7:00 am54 °FLight rain. Fog.1 mph100%30.21 "Hg2 mi
6:00 am54 °FDrizzle. Fog.1 mph100%30.18 "Hg1 mi
5:00 am54 °FDrizzle. Fog.1 mph100%30.15 "Hg1 mi
4:00 am54 °FDrizzle. Fog.1 mph94%30.15 "Hg1 mi
3:00 am54 °FLight rain. Fog.1 mph94%30.15 "Hg1 mi
2:00 am54 °FLight rain. Fog.1 mph94%30.15 "Hg1 mi
Weather by CustomWeather, © 2017

See weather overviewHow to use our weather pages